Radiation Dose measured at Intake/Vertical shaft monitor
Date,Time,Intake(cps),Vertical shaft(cps),Rain
2023/11/03,00:00,8.5,4.9,No
2023/11/03,00:10,8.7,4.9,No
2023/11/03,00:20,8.8,5.1,No
2023/11/03,00:30,8.9,5.2,No
2023/11/03,00:40,8.8,5.0,No
2023/11/03,00:50,8.9,4.9,No
2023/11/03,01:00,8.8,4.9,No
2023/11/03,01:10,8.9,5.2,No
2023/11/03,01:20,9.0,5.2,No
2023/11/03,01:30,9.2,5.0,No
2023/11/03,01:40,9.1,5.2,No
2023/11/03,01:50,9.1,5.2,No
2023/11/03,02:00,9.1,5.1,No
2023/11/03,02:10,9.1,5.2,No
2023/11/03,02:20,9.6,5.3,No
2023/11/03,02:30,9.8,5.2,No
2023/11/03,02:40,9.5,5.2,No
2023/11/03,02:50,8.9,5.1,No
2023/11/03,03:00,9.1,5.1,No
2023/11/03,03:10,9.0,5.1,No
2023/11/03,03:20,9.0,5.0,No
2023/11/03,03:30,8.9,5.0,No
2023/11/03,03:40,9.0,5.0,No
2023/11/03,03:50,8.9,5.0,No
2023/11/03,04:00,8.7,5.0,No
2023/11/03,04:10,9.1,4.9,No
2023/11/03,04:20,8.9,5.0,No
2023/11/03,04:30,8.9,4.9,No
2023/11/03,04:40,8.9,4.9,No
2023/11/03,04:50,8.9,4.8,No
2023/11/03,05:00,8.9,4.7,No
2023/11/03,05:10,8.7,4.9,No
2023/11/03,05:20,8.8,4.9,No
2023/11/03,05:30,8.7,4.8,No
2023/11/03,05:40,8.6,4.8,No
2023/11/03,05:50,8.8,5.0,No
2023/11/03,06:00,8.8,4.8,No
2023/11/03,06:10,8.5,4.7,No
2023/11/03,06:20,8.6,4.7,No
2023/11/03,06:30,8.6,4.8,No
2023/11/03,06:40,8.6,4.8,No
2023/11/03,06:50,8.6,4.8,No
2023/11/03,07:00,8.7,4.7,No
2023/11/03,07:10,8.8,4.7,No
2023/11/03,07:20,8.8,4.7,No
2023/11/03,07:30,8.6,4.8,No
2023/11/03,07:40,8.7,4.6,No
2023/11/03,07:50,8.6,4.7,No
2023/11/03,08:00,8.5,4.9,No
2023/11/03,08:10,8.6,4.9,No
2023/11/03,08:20,8.5,4.7,No
2023/11/03,08:30,8.6,4.6,No
2023/11/03,08:40,8.8,4.8,No
2023/11/03,08:50,8.4,4.7,No
2023/11/03,09:00,8.6,4.7,No
2023/11/03,09:10,8.7,4.8,No
2023/11/03,09:20,8.6,4.8,No
2023/11/03,09:30,8.6,4.9,No
2023/11/03,09:40,8.7,4.8,No
2023/11/03,09:50,8.8,4.8,No
2023/11/03,10:00,8.6,4.9,No
2023/11/03,10:10,8.6,4.7,No
2023/11/03,10:20,8.5,4.7,No
2023/11/03,10:30,8.6,4.8,No
2023/11/03,10:40,8.6,4.9,No
2023/11/03,10:50,8.6,5.0,No
2023/11/03,11:00,8.7,4.9,No
2023/11/03,11:10,8.7,4.8,No
2023/11/03,11:20,8.6,4.8,No
2023/11/03,11:30,8.7,4.8,No
2023/11/03,11:40,8.7,4.8,No
2023/11/03,11:50,8.4,4.9,No
2023/11/03,12:00,8.9,4.8,No
2023/11/03,12:10,8.7,4.8,No
2023/11/03,12:20,8.7,4.8,No
2023/11/03,12:30,8.7,4.7,No
2023/11/03,12:40,8.6,4.7,No
2023/11/03,12:50,8.8,4.8,No
2023/11/03,13:00,8.5,4.6,No
2023/11/03,13:10,8.7,4.7,No
2023/11/03,13:20,8.8,4.7,No
2023/11/03,13:30,8.7,4.8,No
2023/11/03,13:40,8.7,4.9,No
2023/11/03,13:50,8.8,4.9,No
2023/11/03,14:00,8.8,4.9,No
2023/11/03,14:10,8.7,4.8,No
2023/11/03,14:20,8.8,4.6,No
2023/11/03,14:30,8.7,4.7,No
2023/11/03,14:40,8.8,4.6,No
2023/11/03,14:50,9.0,4.8,No
2023/11/03,15:00,8.5,4.8,No
2023/11/03,15:10,8.8,4.8,No
2023/11/03,15:20,8.8,4.7,No
2023/11/03,15:30,8.6,4.7,No
2023/11/03,15:40,8.5,4.8,No
2023/11/03,15:50,8.8,4.8,No
2023/11/03,16:00,9.0,4.8,No
2023/11/03,16:10,8.9,4.9,No
2023/11/03,16:20,8.7,4.8,No
2023/11/03,16:30,8.6,4.9,No
2023/11/03,16:40,8.7,4.9,No
2023/11/03,16:50,8.8,4.9,No
2023/11/03,17:00,8.7,4.8,No
2023/11/03,17:10,8.7,4.7,No
2023/11/03,17:20,8.7,4.8,No
2023/11/03,17:30,8.8,4.7,No
2023/11/03,17:40,8.8,4.8,No
2023/11/03,17:50,8.7,4.9,No
2023/11/03,18:00,8.6,4.8,No
2023/11/03,18:10,8.6,4.9,No
2023/11/03,18:20,8.5,4.8,No
2023/11/03,18:30,8.8,4.6,No
2023/11/03,18:40,8.6,4.7,No
2023/11/03,18:50,8.6,4.7,No
2023/11/03,19:00,8.9,5.0,No
2023/11/03,19:10,8.8,4.8,No
2023/11/03,19:20,8.6,4.9,No
2023/11/03,19:30,8.6,4.8,No
2023/11/03,19:40,8.4,4.8,No
2023/11/03,19:50,8.6,4.9,No
2023/11/03,20:00,8.5,4.8,No
2023/11/03,20:10,8.8,4.9,No
2023/11/03,20:20,8.7,4.8,No
2023/11/03,20:30,8.6,4.7,No
2023/11/03,20:40,8.4,4.9,No
2023/11/03,20:50,8.5,4.8,No
2023/11/03,21:00,8.6,4.8,No
2023/11/03,21:10,8.7,4.8,No
2023/11/03,21:20,8.6,4.9,No
2023/11/03,21:30,8.7,4.8,No
2023/11/03,21:40,8.5,4.8,No
2023/11/03,21:50,8.6,4.7,No
2023/11/03,22:00,8.7,4.7,No
2023/11/03,22:10,8.7,4.7,No
2023/11/03,22:20,8.7,4.9,No
2023/11/03,22:30,8.6,4.9,No
2023/11/03,22:40,8.6,4.6,No
2023/11/03,22:50,8.6,4.7,No
2023/11/03,23:00,8.7,4.9,No
2023/11/03,23:10,8.8,4.6,No
2023/11/03,23:20,8.8,4.7,No
2023/11/03,23:30,8.7,4.7,No
2023/11/03,23:40,8.9,4.8,No
2023/11/03,23:50,8.7,4.7,No
